Regional Weather Roundup
Issued by NWS

Home | Current Version | Previous Version | Text Only | Print | Product List | Glossary On
Versions: 1 2 3 4 5 6 7 8 9 10 11 12 13 14 15 16 17 18 19 20 21 22 23 24 25 26 27 28 29 30 31 32 33 34 35 36 37 38 39 40 41 42 43 44 45 46 47 48 49 50
706
ASUS43 KBIS 172102
RWRND

NORTH DAKOTA REGIONAL WEATHER ROUNDUP
NATIONAL WEATHER SERVICE BISMARCK ND
400 PM CDT THU AUG 17 2017

NOTE: "FAIR" INDICATES FEW OR NO CLOUDS BELOW 12,000 FEET WITH NO
SIGNIFICANT WEATHER AND/OR OBSTRUCTIONS TO VISIBILITY.


NDZ001>003-009>011-017-172200-
NORTHWEST NORTH DAKOTA

CITY           SKY/WX    TMP DP  RH WIND       PRES   REMARKS
WILLISTON      SUNNY     85  54  34 W13       29.84R
MINOT          SUNNY     85  48  27 SE13G18   29.82F
MINOT AFB      SUNNY     84  47  27 SE10      29.81F
$$

NDZ018>021-031>035-040>046-172200-
SOUTHWEST NORTH DAKOTA

CITY           SKY/WX    TMP DP  RH WIND       PRES   REMARKS
BISMARCK       SUNNY     82  53  36 S10       29.86S
DICKINSON      SUNNY     85  47  26 W15       29.86S
GARRISON         N/A     80  60  50 S12       29.82F
HETTINGER ARPT MOSUNNY   84  45  25 W17       29.91R
$$

NDZ004>008-012>016-024-026-027-054-172200-
NORTHEAST NORTH DAKOTA

CITY           SKY/WX    TMP DP  RH WIND       PRES   REMARKS
GRAND FORKS    MOSUNNY   80  61  52 N9        29.83F
GRND FRKS AFB  SUNNY     78  61  55 NW6       29.84F
DEVILS LAKE    SUNNY     77  54  44 CALM      29.87F
$$

NDZ022-023-025-028>030-036>039-047>053-172200-
SOUTHEAST NORTH DAKOTA

CITY           SKY/WX    TMP DP  RH WIND       PRES   REMARKS
FARGO          MOSUNNY   79  61  53 NW15      29.84S
JAMESTOWN      SUNNY     79  56  45 NW5       29.86F
$$





USA.gov is the U.S. government's official web portal to all federal, state and local government web resources and services.